Theta_e
304 297 295 296 300 300 302 304 304 300 302 302 301 299 298 298 299 297 296 296 296 296 296 298 298 299 300 301 302 304 300 298 299 300 301 302 303 303 303 304 307 309 311 318 320 322 323 325 326 328 329 329 329 329 329 329 330 331 331 330 330 331 331 330 330 331 331 329 330 331 331 330 332 332 332 332 332 333 334 333 332 332 333 336 334 333
301 297 297 301 303 302 303 303 300 299 301 300 299 298 298 298 298 299 298 296 296 294 298 295 295 296 297 299 301 301 299 297 298 300 302 302 303 303 304 304 305 306 309 310 311 312 318 321 324 326 327 325 326 327 328 328 329 330 331 330 331 331 331 330 331 331 331 332 331 331 331 332 332 331 330 330 331 333 334 334 333 332 333 334 334 332
296 296 300 303 304 303 300 300 302 300 298 299 299 298 297 297 299 297 296 296 296 294 297 294 294 296 298 299 300 300 299 300 300 300 301 302 303 303 303 304 305 305 304 305 306 309 312 317 321 324 325 326 327 327 327 329 330 330 330 330 331 332 332 331 332 331 331 332 333 333 333 333 333 335 334 333 333 333 333 333 333 333 333 333 332 333
293 297 302 301 301 299 298 299 300 298 299 298 297 296 295 299 295 295 296 295 294 294 294 294 293 296 299 300 299 301 300 300 301 301 301 302 302 303 304 305 305 304 305 305 307 306 307 311 316 320 323 325 326 326 327 328 329 329 329 330 331 331 332 332 332 330 333 333 334 335 335 335 334 332 333 334 334 333 332 332 333 334 335 334 333 333
295 299 300 299 300 299 296 297 297 297 296 298 298 298 298 294 296 296 294 294 293 293 293 294 295 297 300 299 301 301 302 300 300 299 299 300 301 302 305 306 305 303 303 306 306 307 306 307 310 316 320 323 324 326 327 327 328 328 329 330 331 331 332 332 331 331 332 333 333 333 334 334 334 334 333 331 331 332 331 331 332 333 334 335 334 333
296 296 299 297 298 299 297 295 297 298 295 295 297 299 299 297 295 293 294 293 293 294 294 294 291 294 299 298 299 303 299 298 299 298 299 300 300 300 299 301 303 305 304 303 304 307 309 306 307 311 316 319 322 324 326 328 328 329 329 330 331 331 332 332 332 332 331 330 330 329 329 326 327 326 326 326 328 329 329 329 332 333 333 333 333 333
297 296 299 297 297 298 297 296 298 299 296 294 295 298 298 296 295 294 294 295 292 290 292 292 290 290 297 295 297 297 297 298 300 298 299 299 299 299 299 301 301 303 303 304 303 304 305 307 307 307 310 315 318 321 325 327 328 329 329 330 331 331 331 332 332 333 330 330 329 329 328 329 327 326 327 329 331 331 331 332 332 331 331 332 332 332
293 294 297 298 297 296 296 294 297 298 296 294 298 297 296 295 294 294 295 295 295 293 294 290 292 287 288 295 299 299 298 298 299 300 301 300 300 299 300 301 302 302 302 303 304 304 305 305 306 305 307 311 314 318 322 324 326 327 328 329 329 330 330 331 332 331 330 329 329 328 328 328 328 328 328 329 330 331 331 331 331 330 330 331 332 332
295 293 296 295 296 295 294 298 298 299 297 296 296 297 295 296 296 295 295 292 292 290 290 290 293 288 288 294 293 295 295 297 298 299 301 302 303 302 302 302 303 303 303 303 304 303 305 305 305 305 306 308 311 315 318 319 322 325 327 328 329 329 329 330 331 330 330 328 329 328 328 327 327 329 329 330 330 329 330 329 329 329 330 330 330 332
295 296 297 298 297 294 298 299 299 298 296 295 296 298 296 297 296 295 293 292 291 288 286 290 291 287 290 296 296 293 294 295 298 300 302 303 304 304 303 303 304 303 303 302 301 302 303 305 306 306 305 305 306 310 315 318 320 322 324 325 326 327 328 329 330 329 330 329 327 327 327 327 327 327 328 329 329 329 329 327 328 328 328 328 328 329
293 296 299 299 297 298 295 294 299 299 297 297 297 295 295 295 294 293 293 291 289 284 287 292 291 290 286 293 295 295 294 297 299 300 301 303 304 304 304 304 304 301 301 301 302 302 302 302 302 302 301 303 304 307 309 312 316 319 321 322 323 325 327 328 328 328 327 327 327 326 327 327 327 327 327 326 327 327 327 326 326 327 327 328 327 328
294 294 295 296 293 295 298 293 295 296 297 298 294 294 293 291 292 291 289 291 285 285 287 289 290 291 284 290 295 298 297 295 296 297 300 301 303 304 304 301 300 299 300 301 300 302 302 301 301 301 300 301 302 303 304 308 313 316 318 320 321 323 325 327 327 327 326 326 326 326 327 327 327 327 326 325 325 325 324 325 325 326 326 326 327 327
290 292 294 293 295 297 296 294 293 295 295 296 294 293 289 285 287 284 286 283 284 285 285 287 287 286 286 293 296 296 296 297 298 298 299 301 302 303 301 301 302 305 305 303 303 304 304 303 304 303 303 303 303 302 303 305 308 312 315 318 318 320 323 325 326 325 325 326 326 326 326 326 326 327 327 326 326 326 325 324 325 325 324 324 323 324
288 293 291 293 294 296 298 291 289 289 292 293 292 291 288 284 282 282 284 284 284 287 287 287 289 284 291 294 298 297 300 301 301 301 301 300 300 301 302 303 302 304 303 305 305 304 304 303 304 303 303 303 304 303 303 304 306 309 313 315 317 318 321 323 323 324 324 324 325 326 326 326 326 327 327 327 326 326 325 325 325 324 324 323 324 323
283 283 288 290 289 297 296 297 294 293 292 292 297 295 290 289 285 281 282 280 283 285 284 287 286 286 288 294 294 298 300 301 301 300 301 301 301 301 301 301 301 301 302 303 303 303 304 304 303 304 304 303 303 304 304 304 305 308 310 313 315 317 320 321 322 322 322 323 324 325 326 326 327 327 327 327 327 327 326 325 325 325 325 325 325 325
289 288 290 294 294 296 295 299 299 296 293 293 294 295 290 289 291 287 286 286 283 283 282 283 286 292 293 297 297 298 297 297 298 298 298 298 299 300 298 299 302 303 303 303 302 302 303 303 304 304 304 303 303 303 303 303 304 307 309 312 314 316 318 320 320 321 322 323 324 325 325 325 326 325 327 326 327 327 327 325 325 325 325 326 326 326
292 288 289 292 292 295 296 296 296 299 286 291 291 287 291 295 291 284 282 283 283 283 283 288 286 291 295 296 298 299 299 298 298 297 297 298 300 301 300 302 303 304 304 303 302 303 303 304 304 304 304 305 304 303 304 304 304 305 308 310 312 314 317 319 320 321 322 322 323 323 324 325 325 326 325 326 326 326 327 326 325 325 325 326 326 325
291 286 288 291 288 291 290 297 297 296 297 293 286 291 293 296 294 289 283 282 283 281 284 284 284 288 288 287 295 293 295 297 298 299 300 299 300 299 302 304 305 305 305 303 301 302 302 303 303 304 304 304 305 305 306 305 304 304 307 309 310 312 313 316 318 319 320 320 321 322 323 324 325 325 325 326 325 325 324 324 325 325 324 323 323 323
295 284 287 288 291 292 293 295 292 295 294 294 293 300 291 285 284 288 286 278 279 278 282 284 284 284 288 290 294 293 293 295 297 298 298 296 297 299 301 303 304 303 301 301 302 302 303 303 304 305 305 306 304 304 304 303 302 303 303 304 306 309 311 313 316 316 318 319 320 321 321 322 322 324 324 325 325 324 324 322 323 323 323 322 320 317
299 287 285 290 290 291 292 293 286 289 294 294 295 294 294 292 289 285 286 286 286 283 280 282 282 284 291 291 295 296 296 296 297 299 299 300 300 300 301 302 304 305 304 302 301 302 303 304 304 304 305 306 303 302 302 301 301 301 302 303 303 304 304 304 307 311 313 316 317 317 319 320 321 322 322 323 323 322 321 322 321 321 321 320 316 315
292 295 283 287 290 292 285 289 289 291 287 288 290 290 290 290 292 292 289 286 285 283 282 282 282 287 294 295 295 297 298 299 300 300 302 302 300 300 301 303 305 303 303 302 301 301 302 302 303 303 301 299 297 296 297 299 302 303 302 302 303 303 304 303 304 306 309 312 314 314 316 317 318 319 320 321 321 321 320 321 320 321 321 317 313 312
290 291 285 285 285 286 289 291 293 294 293 291 291 289 290 287 285 283 283 288 284 285 281 281 281 289 296 294 296 297 299 300 301 301 302 300 298 299 303 303 302 302 301 300 300 299 301 301 302 302 301 299 297 298 298 300 302 302 302 303 303 303 303 304 305 306 307 309 310 312 314 315 317 317 318 319 319 318 318 318 317 317 316 313 311 310
295 294 287 283 286 288 289 290 288 289 295 295 294 292 294 292 291 287 283 282 283 284 284 283 280 286 298 295 296 297 299 299 299 298 298 299 299 300 302 301 300 299 300 302 301 301 300 302 302 301 301 302 300 301 301 301 302 304 304 304 304 304 304 304 305 306 307 308 308 309 311 313 314 315 314 315 315 315 315 316 315 314 312 310 308 308
294 288 285 285 288 290 290 289 291 291 293 292 292 294 293 290 291 290 287 287 286 284 284 284 281 288 294 295 295 297 297 294 292 294 297 298 299 300 301 304 302 302 302 301 301 300 300 301 298 295 300 300 299 300 300 300 302 303 304 305 305 304 305 305 305 306 306 306 307 308 309 309 310 311 311 311 312 312 312 311 310 308 309 307 306 305
291 289 288 282 282 284 286 289 290 292 291 289 290 291 293 294 293 288 287 287 286 286 286 285 281 287 294 296 293 293 293 293 293 294 294 296 300 301 301 301 301 301 303 304 304 303 302 300 300 301 303 304 304 303 302 299 300 302 304 303 303 304 305 305 306 305 305 304 304 304 305 306 307 307 308 308 308 308 306 304 304 303 305 304 303 304
293 290 288 281 278 276 276 278 281 284 286 289 289 290 291 292 290 287 285 286 283 286 287 285 286 290 292 294 294 295 293 293 295 295 295 296 297 298 301 303 302 302 303 304 305 303 303 304 305 303 302 303 302 302 301 299 299 301 303 303 303 304 303 303 303 303 302 302 302 302 303 304 303 305 306 306 304 305 303 302 302 303 303 303 303 301
289 290 292 290 287 284 287 288 293 293 288 285 287 289 289 292 292 292 290 286 283 286 285 288 290 289 289 293 293 295 294 294 296 296 294 296 297 297 297 301 303 303 302 302 304 305 301 300 302 303 303 303 302 300 300 300 301 300 301 302 302 303 303 302 301 302 302 301 301 301 301 301 301 303 303 303 303 301 300 300 298 299 300 299 300 298
287 288 290 294 293 294 293 289 293 293 288 289 287 287 289 289 289 289 287 285 290 286 283 289 292 288 291 292 294 296 296 295 296 296 295 296 297 300 301 300 296 297 298 299 299 301 303 306 306 303 302 300 300 300 299 299 300 301 300 300 301 301 300 300 300 300 300 300 300 300 300 300 301 301 301 300 299 298 297 296 295 296 296 296 297 297
290 288 291 291 292 289 290 292 293 293 292 291 290 290 288 290 288 286 288 292 292 287 286 293 293 289 292 293 295 296 297 296 297 298 297 297 296 297 296 297 299 300 300 299 302 304 306 306 308 306 302 300 299 299 299 298 297 297 298 299 300 300 299 299 299 299 299 298 299 300 300 298 298 297 296 295 295 295 295 294 294 294 294 295 295 295
294 290 291 291 290 289 287 289 293 292 291 291 290 290 290 290 290 290 291 292 292 291 293 294 294 293 295 295 296 297 298 298 297 294 293 293 295 297 297 298 299 300 299 300 302 303 304 305 306 304 303 300 299 299 299 298 298 297 298 297 298 298 300 299 299 299 299 299 299 299 296 296 296 295 294 295 294 294 293 293 293 293 293 294 294 294
294 290 292 290 287 285 286 288 289 293 291 288 290 291 291 291 291 291 292 292 293 293 293 293 293 291 296 298 298 299 298 296 293 295 295 296 296 297 298 299 300 300 300 300 301 302 302 302 303 303 302 302 301 300 299 299 299 298 298 299 298 299 299 298 299 299 299 299 298 295 294 294 293 293 293 294 293 292 292 292 292 292 292 292 292 292
294 289 291 289 287 285 284 286 286 289 288 287 287 289 290 289 287 289 289 292 291 289 291 291 289 290 296 297 298 299 295 293 295 297 297 297 297 297 298 299 300 301 301 300 300 301 300 300 301 302 303 303 302 300 299 299 299 298 297 298 298 299 298 297 299 298 298 299 296 294 293 293 292 292 293 293 293 292 292 292 291 291 291 291 291 291
291 288 287 288 286 285 283 286 286 286 285 282 284 288 290 290 291 292 293 293 293 294 290 287 289 295 296 297 296 296 295 296 296 297 299 300 301 298 297 298 300 301 301 301 300 300 299 299 301 302 302 302 301 300 300 300 298 298 298 298 298 298 296 296 297 298 298 297 295 294 294 293 293 292 292 293 292 292 292 291 290 291 291 291 290 290
291 290 289 290 285 281 282 285 287 284 278 280 292 293 293 291 291 289 290 291 293 294 293 295 295 296 297 296 296 296 295 296 298 300 302 302 302 301 298 298 299 300 301 301 301 300 300 301 301 300 300 300 301 300 301 299 299 300 299 298 297 296 295 296 296 297 297 296 295 295 293 293 293 293 293 291 291 291 291 290 291 291 291 290 289 291
288 289 289 289 286 279 283 285 282 277 280 291 295 295 295 294 294 292 293 294 294 295 295 295 296 296 296 297 298 298 298 298 299 299 300 301 302 302 302 299 298 298 299 300 299 299 299 300 299 298 298 298 299 299 298 297 297 297 296 296 295 296 295 296 296 295 296 295 295 295 293 292 292 293 292 291 290 290 289 290 289 289 288 288 289 289
288 288 287 286 286 283 281 283 276 278 288 290 290 292 295 295 294 293 291 294 295 295 295 294 295 297 296 296 297 298 298 298 298 298 299 301 302 302 301 300 301 300 299 299 300 301 301 300 299 299 300 299 298 298 298 299 296 295 295 295 295 295 295 295 295 295 295 295 295 294 294 293 293 292 292 291 289 289 289 289 289 288 289 288 288 288
291 290 289 284 285 280 281 283 283 289 288 290 290 289 291 290 291 290 286 290 295 296 296 294 295 296 296 295 296 294 294 297 297 298 299 299 300 300 301 300 302 301 301 301 301 302 302 299 298 298 298 298 298 298 297 297 295 295 294 293 294 294 293 293 294 294 295 294 294 294 295 294 294 293 292 290 289 288 289 288 288 288 288 288 288 287
294 288 288 285 281 286 282 281 283 283 281 288 293 296 297 297 297 296 292 289 297 297 297 296 295 296 296 295 294 294 298 295 294 296 300 300 301 301 301 301 301 302 301 301 300 297 296 296 296 296 297 298 297 297 297 295 294 295 293 293 293 292 291 292 292 294 294 294 294 294 295 294 293 291 289 288 288 288 288 288 288 288 287 288 287 287
293 293 290 288 283 282 283 281 281 280 284 293 295 298 297 297 296 296 290 286 295 298 298 297 296 296 297 294 293 296 294 291 291 296 301 301 301 301 301 302 300 299 299 299 298 297 296 295 295 295 294 295 296 295 294 293 293 294 293 293 293 292 292 291 292 293 293 294 294 295 295 293 292 291 289 289 289 288 288 287 287 287 286 288 287 287
288 289 289 287 282 284 284 282 281 285 286 293 291 294 295 296 298 293 283 284 296 299 299 298 297 297 297 295 295 295 293 290 293 297 302 302 302 302 300 299 297 296 296 296 295 296 297 294 292 292 294 294 296 294 292 292 293 291 294 292 293 292 292 293 293 293 294 294 294 294 293 290 289 289 288 288 288 288 288 288 287 285 286 286 287 285
285 285 287 284 284 284 285 284 287 287 293 292 290 292 295 298 295 286 281 291 297 299 299 299 298 298 298 295 294 293 296 298 300 298 297 299 298 296 295 297 297 297 296 294 294 291 293 293 295 295 295 296 294 292 292 292 292 292 292 292 291 291 293 294 294 294 294 294 293 292 292 290 289 288 288 288 288 288 287 287 287 285 285 285 284 284
284 285 283 287 285 283 285 284 285 288 294 291 291 294 297 293 284 284 295 295 295 296 297 298 297 298 298 297 295 296 298 300 298 293 295 295 298 298 295 294 292 291 291 291 289 290 293 292 292 292 291 291 292 291 291 290 291 292 292 291 291 292 293 293 293 293 293 293 293 291 289 288 288 288 288 287 287 287 286 286 286 285 285 284 284 283
284 283 282 283 287 286 286 284 283 280 291 294 292 292 295 290 291 295 292 292 295 295 295 296 297 297 298 296 297 297 298 298 297 296 294 295 294 295 293 292 293 293 292 291 290 290 292 292 292 292 292 291 289 290 290 289 289 289 289 290 291 292 292 292 292 291 291 289 289 288 287 287 287 287 287 286 286 286 286 285 284 283 283 283 283 283
291 285 285 286 289 281 283 281 283 290 291 293 292 288 292 296 293 295 299 290 292 294 294 295 294 296 297 297 296 296 297 296 294 294 293 292 294 293 293 292 293 293 293 292 293 291 288 293 293 291 290 289 289 288 288 288 288 288 288 289 292 290 290 290 288 288 288 287 287 286 286 286 286 286 287 286 286 286 285 284 283 282 282 282 282 282
291 288 290 286 290 287 285 289 292 287 293 295 296 297 296 298 295 291 297 298 293 292 292 294 294 294 296 297 296 296 295 296 296 295 295 295 294 293 294 294 292 292 292 291 290 287 288 292 291 290 287 288 287 287 287 287 288 287 287 289 288 287 287 286 286 286 286 285 285 285 285 285 285 285 285 285 285 285 283 283 282 282 282 282 282 282
294 294 292 290 290 293 294 293 293 289 290 293 295 296 297 298 295 291 293 295 294 295 292 295 295 294 294 296 295 294 295 296 295 295 294 295 295 294 294 294 292 289 288 287 286 285 286 286 287 287 286 284 283 285 285 286 287 286 287 287 286 286 286 285 284 285 284 284 284 283 283 283 283 283 283 283 285 285 284 282 282 283 282 282 282 282
287 293 291 290 291 290 285 295 292 290 291 292 295 294 293 296 297 293 292 294 296 293 292 294 295 294 294 294 295 295 294 295 294 294 293 293 293 293 293 293 292 290 289 288 287 282 284 285 286 286 285 285 283 282 282 283 284 286 286 285 285 284 284 284 284 283 283 282 283 282 282 282 283 283 282 282 284 284 284 283 283 283 281 282 282 281
287 292 291 290 289 288 290 294 295 291 292 294 294 293 293 293 292 290 291 291 290 291 292 292 292 292 293 292 294 294 294 294 293 293 292 292 292 292 291 291 289 287 285 285 283 283 284 285 286 284 284 286 285 283 282 282 283 282 282 283 283 283 283 283 284 284 282 281 282 282 281 283 279 280 282 282 282 283 283 283 283 283 282 282 282 281
290 290 287 290 288 290 293 290 292 290 291 292 293 293 293 294 294 293 291 289 288 289 287 287 290 291 292 293 293 293 292 291 292 293 292 291 291 289 289 288 288 288 283 281 280 282 286 285 285 284 285 285 283 281 281 281 281 279 281 282 281 282 283 283 281 282 280 280 281 281 281 282 281 281 282 281 281 282 283 282 282 283 283 283 284 284
289 287 291 290 287 287 288 291 292 288 288 291 292 292 291 293 294 294 290 287 287 289 288 289 287 288 289 288 291 292 292 291 291 292 292 291 290 289 287 286 285 284 283 282 281 281 282 283 283 282 283 283 280 279 280 279 279 278 279 280 281 282 283 282 281 280 280 280 281 280 280 281 280 280 281 281 281 280 280 278 280 282 283 283 282 282
290 290 291 288 288 288 293 295 296 295 295 295 294 292 293 292 292 292 290 289 289 290 290 290 288 287 288 288 287 290 291 291 289 290 289 289 288 287 286 285 284 284 282 280 281 281 282 281 280 281 282 282 279 279 279 279 278 278 278 278 280 282 282 281 282 282 280 279 280 279 280 280 280 279 280 280 280 280 280 280 279 279 280 280 281 281
Wind_Speed
5 11 13 14 12 15 16 16 7 4 2 4 7 5 7 8 5 4 3 4 0 3 11 12 13 14 13 14 13 12 5 5 8 10 9 9 8 8 7 8 9 9 13 3 6 8 10 11 11 11 11 12 14 15 16 16 18 19 18 16 17 16 16 15 14 12 11 11 11 12 13 14 11 11 11 9 9 8 8 9 9 9 9 10 9 8
4 10 12 10 11 14 14 8 6 5 5 7 8 9 8 9 9 7 7 3 2 5 5 2 5 11 11 11 12 9 4 9 9 11 12 11 10 9 9 9 9 11 5 6 8 8 9 10 12 11 11 13 15 16 17 19 19 19 20 19 17 16 16 16 14 13 13 13 12 12 12 12 11 10 11 12 9 10 8 9 9 9 9 10 10 8
10 14 10 10 7 8 7 8 7 7 7 7 7 7 7 8 4 1 1 1 2 1 8 2 7 11 11 10 11 13 11 9 10 11 12 11 10 8 9 9 9 6 9 7 10 8 9 11 12 12 12 13 17 16 18 19 18 17 18 18 17 16 16 16 15 13 13 13 13 13 11 13 10 9 11 11 10 10 11 11 11 10 10 11 10 10
10 10 11 9 7 10 8 10 10 7 6 6 6 7 9 5 8 6 6 4 2 3 4 3 7 11 13 12 13 14 12 10 11 12 12 10 12 11 12 11 8 8 9 10 11 10 10 11 11 11 12 14 14 15 15 16 17 15 16 17 18 18 17 15 16 14 16 14 14 14 14 13 13 12 11 11 11 10 11 11 11 11 11 12 11 10
5 7 11 11 11 13 13 12 12 10 8 6 9 9 8 7 9 3 3 4 2 2 1 6 10 13 13 15 14 13 12 8 8 8 8 7 8 10 7 5 6 10 10 9 11 9 9 10 13 15 14 11 12 15 15 16 16 14 19 20 19 17 16 15 16 17 17 14 13 13 13 11 11 9 9 10 11 11 10 10 11 12 12 13 11 10
5 3 12 12 12 12 11 11 13 11 8 8 10 12 11 7 7 4 4 6 5 7 4 2 6 7 3 8 14 8 3 9 7 8 10 9 8 8 10 12 10 10 10 12 13 11 7 9 10 10 11 13 14 15 16 15 17 17 16 17 16 14 13 15 17 17 16 15 15 14 12 13 13 14 11 14 15 13 13 12 8 8 10 11 10 10
5 8 15 15 15 13 14 11 14 13 8 7 7 12 7 6 7 6 6 5 5 6 3 2 9 5 3 7 9 7 7 12 6 8 9 8 7 8 9 9 9 9 10 10 12 13 10 9 8 10 12 14 14 15 11 11 13 16 13 13 15 14 13 13 15 16 15 17 15 16 16 15 13 13 11 10 11 12 11 10 13 10 9 10 10 11
8 11 8 11 13 12 11 11 10 14 8 8 4 9 5 8 8 7 5 8 4 4 1 2 4 7 9 12 9 11 13 13 13 13 10 9 9 9 8 9 9 9 10 12 10 11 11 11 11 12 12 11 14 11 9 11 12 14 15 14 14 13 12 12 13 17 18 15 16 17 17 15 16 17 16 13 12 13 11 9 11 10 9 11 12 12
13 11 14 16 13 11 14 13 12 14 9 1 4 8 9 9 6 6 5 1 2 3 6 5 4 5 8 6 5 1 9 13 16 14 13 11 12 11 10 10 11 12 10 9 8 10 10 10 12 12 10 9 9 8 11 11 11 12 13 13 13 14 13 13 14 15 16 16 15 16 15 16 14 15 15 13 12 12 12 12 10 10 10 10 11 12
2 10 16 16 12 13 7 5 12 13 9 2 7 8 7 7 5 3 2 2 1 3 8 7 9 7 11 6 6 4 6 11 12 13 15 15 12 11 9 9 10 8 6 6 10 10 10 9 8 7 8 9 9 7 8 9 9 10 11 13 15 16 13 12 14 14 16 17 17 16 16 17 16 13 13 13 12 11 10 14 13 12 11 9 10 11
3 4 2 4 11 3 8 5 5 11 5 10 9 9 7 5 3 3 1 1 2 8 9 8 10 7 8 5 8 7 7 9 9 8 9 8 8 8 8 7 4 4 5 6 8 9 8 6 6 4 7 9 8 5 7 10 11 10 11 13 15 16 12 12 14 15 18 19 17 17 17 18 17 16 14 14 13 10 11 14 14 13 13 11 10 9
6 6 7 3 3 5 10 8 6 4 8 12 5 9 9 4 2 1 1 1 4 7 3 2 4 9 10 3 6 6 3 2 6 9 10 12 14 10 5 4 5 5 5 5 5 7 7 6 6 5 6 7 8 6 7 8 8 9 11 11 14 15 15 13 12 14 17 17 18 18 18 16 16 16 15 17 17 14 14 14 14 12 11 10 10 10
5 7 1 2 4 9 9 11 4 5 5 6 9 10 8 5 2 4 2 6 10 6 2 2 1 3 18 12 4 4 7 11 10 9 10 11 10 4 3 3 3 4 5 6 8 7 5 5 5 5 6 4 6 7 9 8 8 9 10 12 13 14 14 12 12 14 17 17 18 18 18 18 15 17 17 16 16 15 14 13 14 12 12 10 10 9
3 1 2 3 4 6 13 13 9 8 9 10 13 12 8 6 5 7 7 1 4 1 3 4 3 9 8 8 17 19 18 14 13 11 10 9 10 7 3 4 5 7 8 7 5 5 6 6 5 5 5 4 4 6 7 8 8 8 8 10 13 13 11 11 12 14 16 18 18 17 17 16 15 15 16 16 14 14 13 12 13 12 12 12 13 11
8 5 11 12 7 8 12 10 15 9 14 13 10 11 1 4 5 7 5 7 4 0 3 2 0 5 2 1 4 7 9 9 4 6 6 7 9 7 5 6 8 9 9 6 7 8 8 6 6 5 3 3 3 4 6 6 7 7 8 9 11 11 10 11 13 14 17 16 16 16 16 16 14 15 14 14 14 13 13 13 14 12 12 12 12 12
15 2 3 3 3 14 15 5 8 13 8 2 1 4 0 3 2 2 0 1 2 2 2 3 7 2 5 7 6 6 8 10 10 8 6 8 8 4 5 6 8 8 6 5 7 8 8 5 4 4 3 3 3 4 4 5 5 6 7 8 10 11 10 11 13 14 15 15 13 16 17 17 15 11 11 11 8 9 11 13 13 13 13 12 12 12
10 8 1 3 2 13 8 7 5 13 11 10 5 9 4 5 3 4 2 3 1 1 6 3 6 7 7 12 18 17 11 11 9 9 9 9 8 5 7 8 9 6 5 4 6 6 6 4 4 4 3 2 3 4 5 5 6 7 7 7 9 9 9 10 12 13 14 14 15 16 16 16 14 13 12 11 7 8 9 12 11 12 13 13 12 10
13 8 3 5 10 3 3 2 8 2 2 10 7 9 4 1 3 2 2 1 2 5 3 3 8 9 0 6 4 3 9 14 12 15 10 7 7 7 8 7 7 6 5 4 5 5 5 5 4 2 2 4 4 4 4 4 4 4 4 5 7 7 9 9 10 12 12 14 15 13 12 12 10 11 10 10 9 7 10 10 11 11 11 11 10 8
10 7 3 4 3 3 2 6 3 1 5 6 6 11 11 6 6 4 1 3 4 3 4 5 6 8 9 10 2 3 9 10 12 9 5 6 7 8 8 7 6 5 4 4 4 3 3 4 4 4 5 3 3 3 2 1 2 3 3 4 5 6 5 5 6 9 10 11 10 9 12 13 12 12 13 12 11 10 12 11 11 11 11 10 8 8
8 6 4 2 4 5 4 7 13 10 2 1 3 9 4 2 2 7 4 1 1 3 0 3 3 6 8 9 12 9 10 11 9 9 9 9 8 8 7 7 6 4 3 3 3 3 3 2 2 2 2 2 2 2 2 2 3 3 3 3 3 3 2 3 4 7 9 9 9 8 9 11 11 10 10 10 10 10 11 12 11 11 10 10 9 10
4 1 7 5 1 6 7 8 14 14 13 7 8 10 6 3 4 2 1 3 2 2 3 3 4 5 4 7 9 16 16 13 9 10 6 3 2 5 7 6 5 4 3 3 3 3 2 1 1 2 3 2 3 3 3 3 4 3 3 3 3 3 3 3 4 5 6 7 9 10 10 9 9 10 8 9 10 10 10 11 11 11 10 8 9 9
4 6 11 10 7 11 5 2 4 10 14 10 11 11 13 10 6 9 7 3 0 3 2 2 8 7 2 4 10 10 11 9 9 10 5 2 4 5 5 5 4 3 3 3 2 2 1 2 3 3 3 3 4 4 4 4 4 4 4 4 3 4 4 4 4 4 4 4 6 9 9 10 8 7 8 9 9 9 9 9 9 9 8 9 9 10
2 5 11 9 8 7 3 3 3 6 2 7 9 10 11 11 6 6 7 4 1 1 3 0 3 7 2 6 9 7 8 8 3 2 6 5 6 6 4 3 3 4 5 3 2 2 2 3 3 2 3 4 4 4 4 5 5 6 6 6 6 6 6 6 5 5 5 5 6 7 8 8 7 6 7 8 7 8 8 8 8 7 9 8 7 7
5 5 9 6 6 3 4 1 1 4 1 3 8 4 10 14 13 4 2 5 7 3 2 3 3 7 3 2 2 4 2 4 2 3 5 4 4 3 3 4 3 3 4 2 1 1 2 3 2 3 5 4 4 4 5 5 5 5 5 5 5 6 5 5 5 5 5 5 6 7 7 7 5 6 6 7 6 7 6 5 5 5 6 7 7 8
8 5 11 9 6 1 2 1 3 2 3 10 12 9 8 5 7 4 4 1 2 9 6 5 10 4 3 2 1 7 3 3 4 4 3 6 5 4 5 4 3 3 2 1 2 2 3 4 5 6 4 4 4 3 3 4 5 5 6 5 6 5 5 5 4 5 5 5 5 5 5 6 5 6 6 7 5 6 5 5 5 5 7 6 7 8
2 7 11 13 16 14 11 12 17 19 21 8 5 10 8 15 13 7 8 5 4 5 14 7 11 4 3 1 4 7 2 6 6 6 6 6 7 5 4 4 3 2 3 2 3 3 5 5 4 4 5 4 5 5 4 5 6 6 6 6 6 5 4 4 4 4 4 4 4 4 5 5 4 6 7 6 5 5 5 5 6 6 6 7 9 8
3 7 10 9 13 15 11 3 11 14 12 10 14 14 12 12 11 8 1 3 12 7 10 19 14 6 3 7 6 9 6 9 7 5 7 9 7 6 7 7 5 4 3 3 3 2 2 5 9 6 5 4 3 4 4 4 5 6 7 7 6 5 4 4 4 4 4 4 5 5 5 5 6 5 5 5 5 4 4 5 4 5 6 6 7 8
4 8 14 16 16 14 4 4 5 13 11 8 10 12 12 14 13 14 12 17 13 7 12 20 11 10 11 9 10 9 8 6 7 6 5 7 7 7 7 6 5 4 4 3 4 5 6 5 4 4 5 5 4 4 4 5 5 5 7 7 6 5 4 4 4 5 5 5 6 6 7 7 6 5 5 3 3 4 4 3 4 4 4 4 7 8
8 12 14 11 11 3 2 8 15 16 18 18 20 17 17 18 18 19 21 25 13 12 19 3 12 17 15 16 13 12 8 9 10 8 6 4 4 3 4 6 7 7 2 4 6 5 6 8 6 2 3 5 4 6 5 5 4 4 6 6 5 5 6 6 6 6 6 6 6 7 6 5 4 4 4 4 4 4 5 5 4 4 5 5 5 5
8 10 12 14 9 4 5 2 10 16 12 18 18 21 21 20 21 22 24 25 21 18 20 2 8 13 13 16 16 11 7 6 2 3 1 2 5 5 5 6 8 7 6 7 8 6 5 5 4 4 4 5 6 5 4 4 4 5 6 8 7 7 7 6 7 6 6 6 7 5 4 4 4 4 4 5 5 5 5 5 5 6 6 6 5 6
10 9 17 14 7 3 3 2 3 6 13 15 17 18 16 17 19 22 23 24 18 18 15 12 12 16 14 11 8 9 5 2 3 5 3 4 4 7 9 9 9 9 8 7 6 6 4 4 5 4 5 7 6 6 5 5 5 5 6 7 8 8 6 6 7 7 7 7 6 4 4 4 3 4 5 5 4 4 5 5 5 4 4 5 6 7
13 1 10 10 11 8 3 5 4 5 4 9 8 12 19 21 22 22 19 12 10 20 25 21 15 19 10 20 12 11 5 4 7 8 6 6 10 8 7 9 10 10 10 9 8 6 6 6 6 7 10 5 5 5 6 6 5 5 7 7 9 9 7 8 8 8 7 7 6 6 6 5 4 5 5 5 6 6 5 6 6 6 6 6 7 6
11 3 8 12 11 8 5 8 9 8 6 2 12 21 30 27 15 6 8 13 22 28 20 12 25 15 12 15 13 11 10 11 11 8 10 10 9 8 9 10 11 11 10 10 10 9 7 7 8 9 7 5 4 5 6 6 6 7 7 8 8 8 7 8 7 7 7 6 6 6 6 6 7 6 5 5 6 6 6 6 6 6 8 8 6 6
8 10 6 9 11 3 6 6 6 6 12 15 21 24 13 17 18 17 20 26 27 21 17 21 11 9 10 11 16 15 16 15 12 11 10 10 10 9 10 9 10 11 11 11 8 7 7 6 6 6 7 6 5 5 3 6 6 5 5 5 6 9 9 9 9 8 7 6 6 6 6 7 7 7 6 5 5 5 6 6 7 7 5 4 5 7
13 10 6 7 6 6 8 8 7 14 14 19 5 11 16 21 22 26 27 25 24 22 22 20 18 9 11 10 13 13 12 10 10 13 14 15 12 9 11 12 14 14 13 11 9 10 9 8 7 6 5 6 5 4 4 4 5 4 4 6 7 8 9 9 8 7 7 7 7 6 6 7 7 7 6 6 6 5 4 6 3 4 3 4 6 7
17 16 8 3 4 4 3 10 9 17 12 4 2 6 15 19 22 20 26 24 25 22 22 24 26 20 10 7 2 1 6 1 3 12 17 13 9 12 13 14 16 16 14 11 12 10 10 9 9 8 8 3 3 4 5 4 5 6 5 5 6 8 8 9 9 8 7 7 8 8 7 7 7 6 6 6 5 5 4 4 5 6 4 4 3 2
20 14 11 8 2 12 10 15 16 5 4 4 7 9 16 20 20 20 19 21 15 13 16 23 26 12 11 8 5 4 3 3 5 15 11 10 14 16 19 21 22 13 13 11 11 11 5 5 7 6 4 4 4 5 6 4 5 5 6 6 6 8 8 9 9 8 8 8 8 7 8 8 7 7 7 5 5 6 6 6 5 4 4 4 4 5
12 15 7 13 4 3 15 10 7 9 13 17 27 24 18 10 10 13 13 20 14 23 24 24 23 18 13 8 7 6 5 3 11 17 12 14 17 21 24 21 12 5 8 9 5 3 4 5 4 3 5 5 5 5 3 5 6 6 6 6 6 8 8 9 10 8 8 8 6 7 7 7 8 6 6 6 7 7 5 4 4 5 5 7 7 6
9 13 14 15 6 4 8 11 12 16 21 27 17 18 16 11 19 13 7 17 26 24 24 22 23 15 16 12 9 10 7 8 16 18 14 18 22 23 22 15 9 12 10 8 8 8 8 6 6 4 3 3 6 5 5 6 7 6 6 6 6 6 8 9 8 8 7 6 6 8 8 7 6 5 7 7 7 7 7 7 6 4 5 4 5 6
12 11 10 13 9 12 13 13 14 8 18 17 8 7 17 20 19 13 9 14 40 17 21 20 22 14 13 14 16 15 15 17 20 21 14 15 20 17 11 11 10 9 8 7 6 5 3 5 5 4 6 7 6 5 6 7 6 4 5 5 5 6 7 8 8 8 8 8 8 7 7 5 6 6 7 8 6 6 6 5 6 7 7 4 5 6
13 8 11 15 13 14 20 8 4 6 17 5 13 17 20 20 18 13 15 31 2 13 16 18 14 15 18 18 17 16 22 23 22 3 10 10 10 7 4 6 6 6 9 7 7 6 5 5 6 7 7 4 4 5 6 6 6 6 5 5 5 7 7 5 6 8 9 9 9 9 8 6 7 8 7 6 7 6 5 6 7 7 8 7 4 4
9 5 3 8 12 13 10 12 8 10 8 10 12 20 22 18 11 24 20 6 12 9 18 20 23 24 25 26 17 16 20 25 10 6 7 10 11 9 8 7 5 4 3 2 4 6 5 5 5 4 3 3 4 5 6 4 5 5 6 5 8 8 4 5 6 6 7 8 9 7 6 7 6 6 6 5 5 6 6 6 6 8 8 5 7 9
15 13 12 15 10 6 6 10 6 10 13 26 15 16 19 19 17 4 7 2 2 13 12 10 11 16 17 17 23 26 27 18 12 6 7 7 7 8 9 10 10 9 9 7 5 5 5 6 7 6 5 3 4 4 3 6 6 4 4 7 7 4 4 5 5 6 5 3 5 5 5 5 6 6 5 5 5 7 6 6 5 4 4 6 7 8
15 10 8 9 10 9 15 17 15 14 5 23 23 16 18 4 2 3 4 2 2 7 11 10 11 12 18 20 20 21 20 9 5 8 7 6 5 5 5 6 6 6 6 4 4 7 4 6 4 3 2 2 2 2 3 6 6 5 6 6 2 3 3 4 3 3 3 3 4 4 5 5 5 5 6 7 7 7 7 7 7 6 6 5 6 6
18 20 21 20 20 14 15 18 8 2 13 17 16 11 12 15 5 4 2 7 8 7 5 9 13 12 15 18 17 19 16 15 16 12 12 13 10 9 9 9 9 8 7 7 5 4 2 4 6 4 2 2 1 1 2 2 4 4 5 1 2 2 3 3 4 4 4 4 4 4 4 4 5 6 5 6 7 8 6 8 7 7 5 6 7 7
23 20 6 3 8 11 11 8 2 3 5 13 8 1 12 20 8 2 4 7 5 9 12 11 11 12 14 13 13 12 14 17 17 13 12 10 11 10 6 5 6 6 6 5 5 6 3 3 4 4 6 2 1 2 1 1 2 4 2 1 2 2 3 5 5 4 4 3 3 2 4 4 3 3 3 4 4 5 6 7 8 7 7 7 7 6
4 16 12 14 8 14 16 19 19 9 3 9 10 7 5 8 14 8 4 6 4 7 11 6 11 14 15 15 16 16 17 16 14 13 10 7 8 9 9 8 7 8 9 6 7 8 6 6 6 6 6 6 3 3 3 4 1 1 2 3 2 4 5 5 5 4 3 2 2 3 3 4 3 4 3 4 3 4 4 5 6 6 7 7 7 7
6 10 14 11 13 18 22 21 19 7 8 12 14 12 11 8 5 3 5 3 3 3 4 6 5 9 9 12 16 14 13 9 12 11 10 10 10 8 8 8 9 7 4 4 7 7 6 7 7 8 8 6 4 3 3 4 4 3 3 3 5 6 6 6 5 4 3 4 3 3 3 3 4 4 3 4 4 4 5 5 6 7 8 9 9 9
6 16 11 11 11 12 16 3 10 11 15 19 19 12 1 4 7 6 8 5 3 8 5 1 2 8 12 13 12 9 8 9 11 11 11 8 7 7 6 7 6 7 7 9 7 7 8 7 8 7 7 5 3 3 3 3 3 3 4 4 6 8 8 5 6 5 5 4 3 2 3 2 3 3 3 3 3 4 4 6 7 7 6 5 5 7
11 15 13 16 14 17 20 26 22 16 17 19 15 12 8 10 10 11 6 4 5 9 7 8 5 3 3 2 5 7 10 9 9 8 9 8 9 8 8 7 6 7 6 4 5 5 6 5 7 8 6 3 2 3 4 4 3 2 1 3 5 7 8 7 5 5 4 4 3 3 3 2 3 3 3 3 3 4 3 4 5 4 4 5 7 7
16 20 18 16 19 20 26 24 15 17 14 8 14 12 12 9 10 10 11 11 10 8 8 10 9 4 7 3 0 6 6 8 10 8 9 8 6 4 4 7 8 7 6 5 8 6 6 6 6 6 6 3 2 3 3 3 2 2 1 2 2 4 6 7 4 3 3 3 3 4 4 3 3 3 3 3 3 3 4 4 4 7 8 6 2 3
Wind_Direction
152 168 189 194 187 183 188 195 191 84 143 173 190 200 214 222 220 173 182 125 112 243 230 229 236 247 246 239 243 254 153 221 251 253 244 240 237 235 233 233 236 233 237 238 214 217 212 211 212 212 210 212 213 220 220 219 218 217 216 215 217 215 213 213 214 214 214 213 217 220 220 221 222 220 219 217 212 209 209 206 202 206 213 219 214 204
203 193 205 194 190 178 185 168 104 100 146 176 187 205 216 212 239 193 187 129 188 238 236 168 258 261 255 256 258 260 228 246 240 254 251 245 235 233 234 240 234 239 257 259 252 226 215 214 210 206 207 206 210 215 215 217 216 216 217 217 218 216 214 211 210 209 211 213 213 211 216 220 220 217 214 217 210 212 208 204 201 204 213 218 216 209
190 209 185 174 149 143 134 149 172 172 166 173 201 197 220 219 244 355 251 86 107 221 261 125 265 263 258 250 251 254 246 240 231 236 254 258 250 235 231 236 243 244 255 248 248 227 213 210 208 206 209 209 212 212 212 216 215 216 219 220 219 219 216 213 210 208 212 213 216 215 218 216 221 219 222 219 213 202 209 208 205 205 212 213 216 215
182 209 175 130 126 143 152 174 176 169 181 187 183 188 216 182 175 225 177 135 154 279 307 331 289 273 265 255 248 247 245 232 225 223 237 238 247 247 239 236 237 247 250 246 243 226 208 205 206 208 210 211 206 211 213 211 212 212 216 216 216 218 217 215 212 208 213 211 214 217 222 221 222 225 221 222 218 207 208 211 203 209 214 216 216 212
155 129 127 144 166 167 164 174 174 180 200 205 208 211 215 168 204 302 122 150 81 220 264 279 275 269 251 247 250 229 227 231 231 236 235 239 237 253 272 283 239 240 240 248 256 242 203 196 206 207 210 205 208 211 211 206 204 207 211 211 211 212 211 210 210 208 214 211 210 217 222 229 230 227 218 218 217 218 214 209 207 212 212 215 214 211
142 148 130 143 164 173 154 173 187 182 205 202 225 224 223 195 181 127 120 172 216 233 169 294 280 257 231 235 249 259 178 230 208 224 229 233 219 224 247 246 241 232 240 245 248 250 210 209 214 211 209 206 212 214 216 211 207 208 211 211 210 211 210 209 209 208 211 211 211 210 214 214 216 221 212 210 213 209 210 211 205 207 205 208 208 208
159 146 159 162 167 174 175 186 183 186 202 194 218 204 224 180 161 155 169 184 234 243 113 312 237 270 263 246 240 239 236 251 237 223 245 246 232 211 224 233 238 229 236 231 247 255 248 229 210 213 211 213 217 222 216 214 218 216 217 212 207 207 208 208 209 204 208 214 216 215 213 212 209 215 218 215 212 215 218 218 216 207 198 202 207 211
133 160 153 150 157 167 182 193 182 191 190 213 82 162 154 154 165 174 190 219 277 4 296 203 262 272 287 273 237 229 249 251 249 246 229 229 247 241 225 229 228 228 227 237 232 244 244 237 224 227 219 212 218 218 204 212 215 217 218 215 212 211 212 209 207 208 211 216 215 218 219 220 224 223 227 217 218 220 221 213 215 205 198 201 209 213
139 151 170 160 165 177 196 198 158 192 193 116 114 142 163 174 151 147 205 173 352 348 257 166 150 265 229 253 95 246 240 246 247 246 246 229 227 231 229 232 234 231 225 217 226 237 233 228 225 229 232 224 226 215 210 216 218 217 219 219 219 219 216 214 203 202 206 215 215 216 220 223 224 228 229 228 223 221 215 213 205 201 202 203 207 212
247 176 173 161 166 196 171 123 162 179 174 30 106 75 82 87 95 150 152 246 220 241 249 186 184 244 269 233 240 161 229 250 248 241 238 234 223 216 222 227 234 238 241 236 242 249 243 237 238 234 244 243 230 217 219 221 217 216 215 217 217 220 216 212 208 203 208 213 218 218 217 221 221 220 225 224 222 215 204 212 209 205 205 201 205 208
91 5 28 157 193 148 100 49 141 171 62 127 132 123 111 95 112 98 59 322 272 250 247 205 185 226 292 183 234 206 216 229 248 248 251 250 237 228 219 224 242 257 244 239 243 249 254 251 238 229 245 250 250 226 225 223 218 214 213 216 219 222 220 215 210 209 216 220 216 220 218 217 219 218 217 216 218 207 205 208 209 206 208 201 199 202
107 125 161 208 28 104 112 98 37 50 140 144 144 149 138 100 140 201 194 260 244 253 93 2 181 194 234 186 241 239 241 238 238 246 251 243 242 232 190 203 222 224 222 226 238 250 236 240 234 202 231 244 251 246 232 233 222 216 213 213 218 220 217 215 209 211 219 218 218 222 223 220 220 217 215 214 213 204 204 205 207 200 198 199 199 203
113 172 101 86 281 150 154 126 125 126 157 170 146 160 151 140 140 201 187 220 216 239 75 51 136 217 238 242 289 261 243 241 237 245 250 254 256 236 177 196 242 246 235 220 219 231 242 228 235 226 207 201 230 236 240 236 229 226 222 216 217 220 212 211 205 215 221 219 220 220 222 222 220 219 219 218 220 214 210 206 206 196 196 193 198 200
77 61 254 160 140 250 168 161 155 161 180 171 169 168 159 148 187 212 195 291 300 244 181 72 96 259 298 279 229 241 243 236 247 237 233 253 262 266 254 254 254 248 253 263 276 263 245 242 230 234 246 221 210 227 234 230 224 226 224 221 221 225 213 207 208 216 223 223 224 222 223 223 220 220 221 223 222 218 212 207 207 198 196 196 199 199
142 191 234 170 195 174 196 189 167 157 163 187 182 186 229 175 169 194 176 204 214 341 109 235 217 249 177 90 12 261 256 271 287 270 260 249 260 268 289 279 266 259 251 245 257 258 258 250 249 248 228 232 236 236 233 225 224 224 224 220 221 222 215 206 211 218 222 224 224 225 224 224 223 224 222 224 224 220 214 211 209 203 202 203 203 203
186 123 29 112 327 156 182 133 125 128 140 121 326 8 259 212 331 227 110 253 121 174 175 186 228 283 226 358 282 241 254 262 255 252 245 260 251 224 247 252 253 251 245 218 242 257 265 253 253 251 244 225 225 228 230 227 220 220 223 218 219 219 217 209 210 218 221 222 223 224 224 224 225 225 225 226 215 217 212 210 208 207 205 206 205 208
175 195 154 118 95 173 160 131 143 160 171 179 143 210 180 34 102 116 106 49 51 323 256 154 265 257 270 264 250 254 242 248 241 235 227 240 246 221 236 230 241 247 248 229 233 240 248 241 223 229 241 236 220 220 218 209 207 216 220 218 218 218 216 212 209 217 219 222 223 225 225 225 223 221 220 223 210 205 207 211 208 212 211 209 208 199
175 148 339 154 161 318 6 170 154 328 35 118 210 195 85 70 355 232 173 118 221 242 257 137 236 256 212 284 91 247 238 250 262 264 252 218 232 242 240 226 227 234 238 242 246 241 243 244 238 225 223 232 232 225 216 209 197 214 225 229 229 226 222 219 217 220 223 223 225 225 224 224 219 220 219 218 216 200 208 209 211 212 208 206 202 194
113 94 163 334 56 77 96 135 118 193 322 202 198 139 170 196 211 200 168 191 177 232 264 223 259 271 234 243 205 201 201 219 230 235 219 211 218 233 241 249 246 247 258 250 239 234 224 219 209 198 214 209 230 235 236 157 184 203 216 225 241 242 240 238 231 231 233 230 227 226 223 220 217 218 219 216 213 210 210 205 204 203 203 198 191 177
179 123 125 8 157 154 157 191 191 185 184 28 124 182 356 333 221 161 210 26 190 234 162 265 121 263 186 226 211 217 211 206 211 229 235 238 220 221 240 245 248 250 242 257 260 257 249 237 203 177 184 197 211 221 225 219 204 207 212 224 236 262 280 277 254 238 237 234 233 232 229 224 218 213 210 207 204 205 206 207 201 202 199 195 182 186
127 200 139 133 286 167 178 211 207 170 166 166 179 185 183 214 340 350 29 204 211 205 209 301 284 243 200 200 195 214 219 221 235 250 242 237 250 232 234 236 232 232 250 254 267 280 289 284 201 179 175 189 207 215 219 210 210 207 200 214 223 239 244 244 243 239 238 235 234 231 228 223 216 216 211 211 210 208 207 208 205 205 201 178 188 177
140 190 141 139 154 200 202 59 3 160 180 177 181 191 187 158 168 174 214 97 234 195 222 211 260 275 188 158 200 221 229 239 244 244 247 144 204 230 233 231 228 243 233 232 229 236 271 266 248 203 182 191 200 203 199 199 202 201 202 202 200 212 232 243 244 240 250 247 249 241 237 233 222 217 215 214 210 213 208 206 203 198 187 186 185 181
83 88 116 158 177 173 78 10 352 338 269 199 194 202 183 196 199 205 211 183 113 227 43 48 336 285 109 168 188 207 225 226 251 283 255 232 238 235 231 242 247 242 251 227 194 190 207 233 240 243 228 204 198 196 192 199 205 205 204 202 206 206 215 213 219 225 230 237 239 239 239 237 228 215 217 216 215 214 210 208 200 191 187 186 178 184
106 121 107 69 57 26 69 165 49 12 31 211 256 228 178 201 195 189 6 136 183 135 207 225 258 255 48 342 231 238 321 30 360 287 286 275 256 261 266 252 240 233 221 219 210 219 233 235 247 250 227 217 208 207 205 208 210 213 215 215 212 213 217 213 215 217 220 228 235 239 239 236 230 222 217 220 218 217 213 205 196 179 187 178 167 173
158 195 130 127 112 120 317 127 181 162 221 227 210 181 189 124 109 104 105 16 221 203 178 169 241 240 135 345 41 260 268 287 284 264 266 284 288 280 266 265 251 255 301 229 189 207 214 227 227 226 219 215 203 197 197 212 214 213 216 213 214 216 212 210 208 208 216 220 230 231 234 231 227 225 225 225 217 216 198 188 174 175 177 166 174 179
38 164 158 157 161 168 183 194 197 198 204 181 72 129 179 169 155 134 211 201 255 187 180 206 238 99 70 282 246 250 279 276 254 244 255 240 259 284 292 257 256 210 234 212 209 207 224 226 235 232 218 210 202 193 187 203 213 219 222 222 219 221 214 216 205 203 187 188 202 207 229 235 225 228 225 220 217 208 195 183 180 180 180 178 178 176
159 172 200 183 184 192 199 168 33 72 85 170 188 165 165 185 162 182 118 193 218 210 188 224 214 67 135 202 220 235 232 245 252 230 227 243 242 236 253 258 240 213 206 227 220 233 301 252 237 230 224 219 197 193 197 194 204 214 218 224 218 217 219 212 195 197 201 191 196 196 206 207 213 221 219 212 207 193 183 188 184 178 181 182 175 171
128 185 204 202 211 208 84 146 133 123 158 162 142 177 170 177 180 182 195 218 204 89 235 238 215 249 221 185 214 221 223 232 249 251 250 249 239 224 229 245 256 262 246 248 252 238 232 248 253 225 226 217 208 196 208 205 209 204 211 218 212 207 208 202 196 197 197 191 202 199 187 208 209 210 210 193 173 175 178 167 169 179 162 160 168 174
169 192 195 196 212 83 349 154 152 155 174 175 180 171 169 177 181 190 210 228 178 200 229 217 152 224 224 189 201 221 212 212 223 219 214 262 307 296 271 245 241 242 242 265 261 243 221 238 239 239 236 229 201 206 207 206 207 212 221 221 213 204 208 197 194 195 186 187 207 212 198 172 181 151 134 153 159 165 169 172 167 157 160 168 169 164
163 216 179 195 189 85 43 216 169 162 177 180 182 180 182 174 187 198 215 223 203 219 233 181 205 235 228 198 195 212 217 217 236 14 23 214 226 219 223 243 246 242 224 234 239 232 222 232 240 218 221 239 216 199 199 211 211 208 208 213 211 208 209 189 200 194 200 205 211 209 176 151 176 160 159 158 173 177 168 165 165 162 163 164 159 155
198 197 168 184 183 222 25 88 330 176 152 185 191 185 178 186 198 207 216 225 210 242 265 253 258 269 235 189 200 197 226 48 328 275 260 237 237 216 211 220 233 235 229 239 249 238 233 241 251 254 241 233 217 192 187 203 205 199 209 216 215 211 202 195 200 204 199 206 201 177 149 168 178 166 181 182 166 158 160 157 150 147 144 145 149 149
204 218 153 163 194 203 205 153 127 104 151 178 182 185 188 191 205 210 217 210 177 226 233 234 254 254 241 140 187 197 128 195 217 224 223 235 226 211 214 227 234 237 234 230 232 228 231 243 252 252 252 230 191 181 191 195 192 187 208 203 211 207 192 197 205 204 205 205 174 171 172 175 172 183 190 173 175 173 168 153 152 154 150 146 148 147
190 150 168 177 196 193 136 152 122 109 89 178 211 199 199 202 200 190 232 215 210 217 219 203 228 234 113 159 163 182 188 211 217 213 223 225 220 200 209 220 226 232 238 237 231 223 217 224 224 239 245 223 195 195 203 184 178 201 197 193 202 197 191 200 202 204 206 194 157 173 176 171 177 185 185 192 174 165 156 159 157 156 159 164 158 149
179 179 186 170 201 127 161 139 133 139 207 219 220 208 174 177 191 195 210 217 221 214 219 215 232 89 148 143 175 184 198 205 206 219 226 239 249 223 224 233 239 238 236 235 237 234 231 225 234 232 228 229 213 200 178 186 199 194 178 173 178 194 196 199 205 203 202 187 185 181 179 177 181 184 185 177 170 162 161 166 172 170 169 152 151 164
174 180 199 180 172 155 169 137 152 211 223 232 70 119 185 200 198 207 221 220 222 213 229 244 247 222 151 178 187 194 193 202 199 218 226 228 228 235 223 216 223 221 221 224 229 225 221 219 219 223 227 231 212 185 174 195 196 174 169 173 177 194 196 203 200 203 197 184 185 185 179 181 185 183 174 171 166 169 171 169 160 154 154 161 170 168
173 179 161 193 116 65 158 168 192 222 224 73 85 161 176 198 211 214 235 236 224 212 215 232 236 229 128 181 176 53 195 185 262 237 229 221 207 221 229 233 222 206 216 210 216 220 209 202 201 202 213 197 159 172 189 190 170 174 178 168 177 188 200 200 203 204 194 193 188 189 186 182 182 181 175 171 169 170 174 171 168 169 161 156 161 139
175 164 181 169 191 166 186 184 213 21 354 213 228 213 185 196 196 195 222 242 216 222 214 228 236 204 139 184 154 89 137 125 236 246 207 194 227 223 223 235 237 212 206 219 211 224 199 171 184 203 180 171 173 174 196 172 163 165 161 172 184 190 199 200 207 205 197 196 192 189 188 189 183 181 177 173 174 179 176 173 168 163 163 161 166 167
181 178 165 158 216 172 178 190 210 240 249 228 217 214 190 202 185 186 219 272 224 206 208 218 229 209 170 142 131 146 88 191 240 244 185 196 224 233 236 236 244 218 206 216 202 182 171 179 177 184 186 171 186 203 169 163 165 164 168 179 178 194 201 204 214 205 199 201 188 187 187 191 187 177 174 174 185 183 181 174 173 172 172 172 167 176
209 188 176 180 167 119 179 187 198 210 228 232 223 199 172 142 110 117 169 249 255 213 212 202 220 172 169 139 155 132 179 217 242 244 205 198 223 232 239 240 216 228 223 206 200 209 189 187 188 176 167 182 201 198 175 164 160 160 178 178 182 195 207 213 213 204 197 190 188 194 196 191 188 183 177 182 187 181 177 177 176 163 168 178 168 169
203 201 184 195 164 185 178 198 210 204 232 238 118 140 132 132 115 115 210 244 251 218 205 204 210 168 160 159 161 184 191 223 236 242 221 194 221 240 224 222 218 221 223 191 212 210 136 134 149 180 194 200 207 157 165 160 168 181 179 178 175 196 212 211 203 201 198 192 191 189 186 183 184 186 182 188 183 181 181 168 165 167 177 171 170 163
195 196 200 192 189 195 193 213 269 277 252 136 143 138 142 129 145 177 203 232 234 131 177 187 182 170 178 184 181 194 212 214 233 18 118 171 195 216 193 210 222 205 194 183 199 170 167 179 189 196 196 197 159 157 160 161 157 182 186 173 188 216 214 190 176 188 196 196 191 193 192 191 188 186 189 184 181 175 169 176 172 167 168 167 156 145
193 178 237 203 195 188 190 206 229 264 248 116 163 150 146 145 179 205 219 75 123 136 172 173 183 187 189 194 187 206 218 222 211 76 118 148 180 192 174 151 124 96 65 90 126 159 163 165 185 169 178 188 163 154 156 157 173 181 174 181 214 216 177 173 182 183 184 186 193 189 185 187 186 185 178 170 160 164 174 181 162 171 172 163 166 172
185 183 188 199 191 190 181 204 229 252 237 147 138 159 172 188 210 149 90 340 129 166 157 184 184 187 184 194 199 206 221 221 202 164 145 148 154 168 165 165 171 170 171 165 169 189 164 158 179 193 182 159 152 160 157 163 178 175 170 209 218 170 171 180 176 177 180 178 186 184 181 184 180 174 163 163 163 162 167 167 153 148 152 162 162 169
158 190 184 215 199 182 187 195 207 217 35 134 150 180 204 165 32 225 126 123 325 142 171 172 199 189 189 193 198 213 222 197 190 186 173 179 177 159 132 138 142 159 157 155 120 151 165 156 139 128 121 96 122 161 164 176 180 184 197 221 164 148 157 158 156 152 162 164 176 176 185 180 174 174 176 171 168 172 165 171 166 154 168 160 162 171
180 195 185 192 188 193 196 207 171 118 156 166 165 191 182 221 187 251 342 149 167 220 201 175 186 193 191 194 200 205 212 211 217 195 183 198 182 180 176 184 171 163 150 139 126 121 133 136 147 119 112 101 132 170 180 204 180 180 201 193 128 153 148 126 128 131 144 154 156 174 173 163 174 172 169 169 165 167 160 163 154 164 174 167 182 181
192 196 76 35 200 217 266 254 319 147 173 204 207 214 194 206 224 103 219 194 206 180 170 177 193 180 193 196 189 208 210 212 214 207 205 202 185 191 173 131 104 99 101 107 109 123 130 106 111 124 126 115 135 167 179 200 184 174 203 112 135 135 110 117 122 130 139 134 149 134 123 136 131 142 146 158 174 175 167 164 171 177 173 182 192 190
194 188 187 203 161 172 233 227 219 210 128 212 238 255 307 226 211 200 211 250 219 164 190 222 175 180 182 182 194 198 209 211 205 209 197 190 193 186 180 174 145 149 154 163 152 144 143 137 141 151 152 158 181 182 182 175 157 142 105 116 120 108 117 129 128 116 109 126 122 116 137 157 168 163 159 180 181 185 177 175 179 177 176 184 188 188
236 191 197 196 174 196 222 219 217 147 193 206 210 224 230 222 186 153 230 278 316 288 228 208 178 175 164 180 197 199 209 186 180 182 174 186 187 170 170 156 149 136 102 99 134 153 134 151 152 156 161 166 170 178 169 171 163 148 130 131 132 132 133 134 144 145 142 132 137 149 160 180 148 159 172 185 190 187 186 188 192 192 192 189 188 184
136 140 196 164 208 231 247 348 152 167 205 214 212 208 157 191 181 202 219 226 242 181 161 93 239 160 177 196 190 185 171 189 187 173 162 159 156 162 165 153 150 135 135 143 155 163 162 153 153 156 157 150 156 151 164 150 155 154 154 150 146 147 141 143 129 119 117 136 136 145 154 171 158 189 186 180 205 220 209 196 197 207 217 214 199 191
131 186 187 182 205 213 211 215 178 187 216 217 205 190 200 212 193 199 173 185 192 181 184 145 94 68 113 40 180 179 191 170 162 154 166 158 156 147 143 137 132 133 130 120 122 135 126 131 134 138 137 135 122 146 134 138 138 164 152 143 147 146 134 134 135 131 143 150 154 146 158 169 171 182 193 192 204 218 246 300 281 280 234 219 219 240
187 188 182 192 198 220 226 227 189 208 228 214 189 190 198 204 195 198 202 200 205 213 190 148 129 132 187 200 312 181 183 167 164 144 136 135 139 130 125 136 136 140 128 138 122 108 109 107 112 110 131 137 130 108 113 109 119 120 125 131 147 144 126 132 142 146 138 157 168 165 166 169 174 177 193 195 201 209 222 231 230 246 266 295 269 211